Weather History for Oakes, ND

Change the Weather History Date:

Thursday, December 5, 2013

  Actual Average (KABR) Record (KABR)
Temperature  
Mean Temperature 0 °F 19 °F  
Max Temperature 5 °F 29 °F 57 °F (1939)
Min Temperature -4 °F 9 °F -25 °F (2005)
Degree Days  
Heating Degree Days 64 46  
Month to date heating degree days 226  
Since 1 July heating degree days 2189  
Cooling Degree Days 0 0  
Month to date cooling degree days 0  
Year to date cooling degree days 525  
Moisture  
Dew Point -7 °F    
Average Humidity 76    
Maximum Humidity 85    
Minimum Humidity 71    
Precipitation  
Precipitation 0.00 in 0.02 in 0.41 in (1936)
Month to date precipitation 0.09  
Year to date precipitation 21.29  
Snow  
Snow 0.00 in - - ()
Month to date snowfall  
Since 1 July snowfall  
Snow Depth -    
Sea Level Pressure  
Sea Level Pressure 30.11 in    
Wind  
Wind Speed 23 mph (WNW)    
Max Wind Speed 31 mph    
Max Gust Speed 41 mph    
Visibility 9 miles    
Events Rain    
T = Trace of Precipitation, MM = Missing Value Source: NWS Daily Summary

Daily Weather History Graph

Daily Weather History Graph

Search for Another Location

Airport:

Trip Planner

Search our weather history database for the weather conditions in past years. The results will help you decide how hot, cold, wet, or windy it might be!

Date:

Astronomy

Dec. 05, 2013 Rise Set
Actual Time 7:59 AM CST 4:46 PM CST
Civil Twilight 7:24 AM CST 5:21 PM CST
Nautical Twilight 6:47 AM CST 5:58 PM CST
Astronomical Twilight 6:10 AM CST 6:35 PM CST
Moon 10:15 AM CST (12/5) 8:14 PM CST (12/5)
Length of Visible Light 9h 56m
Length of Day
8h 47m
Waxing Crescent, 11% of the Moon is Illuminated
Dec 5
Waxing Crescent
Dec 9
First Quarter
Dec 17
Full
Dec 25
Last Quarter
Jan 1
New

Hourly Weather History & Observations

Time (CST) Temp. Windchill Dew Point Humidity Pressure Visibility Wind Dir Wind Speed Gust Speed Precip Events Conditions
12:15 AM 5.0 °F -17.1 °F -0.4 °F 78% 29.87 in 5.0 mi WNW 24.2 mph 32.2 mph N/A   Overcast
12:35 AM 3.2 °F -20.3 °F -0.4 °F 85% 29.88 in 4.0 mi WNW 26.5 mph 38.0 mph N/A   Overcast
12:55 AM 1.4 °F -24.3 °F -2.2 °F 85% 29.89 in 3.0 mi WNW 31.1 mph 41.4 mph N/A Rain Light Freezing Rain
1:15 AM 1.4 °F -23.2 °F -2.2 °F 85% 29.91 in 9.0 mi WNW 27.6 mph 36.8 mph N/A   Overcast
1:35 AM 1.4 °F -21.0 °F -2.2 °F 85% 29.93 in 10.0 mi WNW 21.9 mph 29.9 mph N/A   Overcast
1:55 AM 1.4 °F -21.9 °F -2.2 °F 85% 29.93 in 10.0 mi WNW 24.2 mph 29.9 mph N/A   Overcast
2:15 AM 1.4 °F -22.7 °F -2.2 °F 85% 29.93 in 8.0 mi WNW 26.5 mph 34.5 mph N/A   Overcast
2:35 AM -0.4 °F -24.7 °F -4.0 °F 85% 29.94 in 9.0 mi WNW 25.3 mph 34.5 mph N/A   Overcast
2:55 AM -0.4 °F -24.3 °F -4.0 °F 85% 29.95 in 9.0 mi WNW 24.2 mph 35.7 mph N/A   Overcast
3:15 AM -0.4 °F -23.8 °F -4.0 °F 85% 29.95 in 10.0 mi WNW 23.0 mph 33.4 mph N/A   Scattered Clouds
3:35 AM -0.4 °F -24.3 °F -4.0 °F 85% 29.96 in 9.0 mi WNW 24.2 mph 33.4 mph N/A   Scattered Clouds
3:55 AM -0.4 °F -26.7 °F -5.8 °F 78% 29.95 in 5.0 mi WNW 31.1 mph 35.7 mph N/A   Haze
4:15 AM -0.4 °F -26.0 °F -5.8 °F 78% 29.96 in 4.0 mi WNW 28.8 mph 40.3 mph N/A   Haze
4:35 AM -0.4 °F -24.7 °F -5.8 °F 78% 29.98 in 8.0 mi WNW 25.3 mph 33.4 mph N/A   Overcast
4:55 AM -0.4 °F -24.7 °F -5.8 °F 78% 29.99 in 10.0 mi WNW 25.3 mph 29.9 mph N/A   Overcast
5:15 AM -0.4 °F -21.2 °F -7.6 °F 72% 30.00 in 10.0 mi WNW 17.3 mph 24.2 mph N/A   Overcast
5:35 AM -0.4 °F -21.7 °F -5.8 °F 78% 30.00 in 10.0 mi WNW 18.4 mph - N/A   Scattered Clouds
5:55 AM -0.4 °F -22.8 °F -5.8 °F 78% 30.01 in 10.0 mi WNW 20.7 mph 28.8 mph N/A   Mostly Cloudy
6:15 AM -0.4 °F -23.3 °F -7.6 °F 72% 30.01 in 10.0 mi WNW 21.9 mph 27.6 mph N/A   Overcast
6:35 AM -0.4 °F -24.7 °F -5.8 °F 78% 30.01 in 10.0 mi WNW 25.3 mph 34.5 mph N/A   Overcast
6:55 AM -0.4 °F -23.3 °F -5.8 °F 78% 30.02 in 10.0 mi WNW 21.9 mph 31.1 mph N/A   Overcast
7:15 AM -0.4 °F -22.3 °F -7.6 °F 72% 30.04 in 10.0 mi WNW 19.6 mph 27.6 mph N/A   Overcast
7:35 AM -0.4 °F -22.3 °F -7.6 °F 72% 30.03 in 10.0 mi WNW 19.6 mph 25.3 mph N/A   Scattered Clouds
7:55 AM -0.4 °F -24.7 °F -7.6 °F 72% 30.02 in 10.0 mi WNW 25.3 mph 31.1 mph N/A   Clear
8:15 AM -0.4 °F -25.6 °F -7.6 °F 72% 30.02 in 8.0 mi WNW 27.6 mph 34.5 mph N/A   Clear
8:35 AM -0.4 °F -25.6 °F -7.6 °F 72% 30.03 in 8.0 mi WNW 27.6 mph 33.4 mph N/A   Partly Cloudy
8:55 AM -0.4 °F -24.7 °F -7.6 °F 72% 30.06 in 10.0 mi WNW 25.3 mph 28.8 mph N/A   Scattered Clouds
9:15 AM -0.4 °F -26.0 °F -7.6 °F 72% 30.05 in 8.0 mi WNW 28.8 mph 38.0 mph N/A   Scattered Clouds
9:35 AM -0.4 °F -25.2 °F -5.8 °F 78% 30.06 in 8.0 mi WNW 26.5 mph 34.5 mph N/A   Partly Cloudy
9:55 AM -0.4 °F -25.6 °F -5.8 °F 78% 30.08 in 8.0 mi WNW 27.6 mph 33.4 mph N/A   Clear
10:15 AM -0.4 °F -25.6 °F -5.8 °F 78% 30.10 in 9.0 mi WNW 27.6 mph 33.4 mph N/A   Clear
10:35 AM -0.4 °F -26.0 °F -5.8 °F 78% 30.10 in 9.0 mi WNW 28.8 mph 32.2 mph N/A   Clear
10:55 AM -0.4 °F -26.0 °F -5.8 °F 78% 30.12 in 10.0 mi West 28.8 mph 34.5 mph N/A   Clear
11:15 AM -0.4 °F -23.8 °F -5.8 °F 78% 30.14 in 10.0 mi West 23.0 mph 29.9 mph N/A   Scattered Clouds
11:35 AM -0.4 °F -23.8 °F -5.8 °F 78% 30.14 in 10.0 mi WNW 23.0 mph 29.9 mph N/A   Overcast
11:55 AM -0.4 °F -24.7 °F -5.8 °F 78% 30.13 in 10.0 mi WNW 25.3 mph 33.4 mph N/A   Overcast
12:15 PM 1.4 °F -22.7 °F -5.8 °F 72% 30.13 in 10.0 mi WNW 26.5 mph 29.9 mph N/A   Overcast
12:35 PM 1.4 °F -20.5 °F -5.8 °F 72% 30.15 in 10.0 mi WNW 20.7 mph 29.9 mph N/A   Overcast
12:55 PM -0.4 °F -24.3 °F -5.8 °F 78% 30.15 in 10.0 mi West 24.2 mph - N/A   Overcast
1:15 PM 1.4 °F -21.0 °F -5.8 °F 72% 30.15 in 10.0 mi WNW 21.9 mph - N/A   Overcast
1:35 PM 1.4 °F -19.9 °F -5.8 °F 72% 30.15 in 10.0 mi WNW 19.6 mph 27.6 mph N/A   Overcast
1:55 PM 1.4 °F -21.9 °F -5.8 °F 72% 30.15 in 10.0 mi West 24.2 mph 28.8 mph N/A   Overcast
2:15 PM 1.4 °F -21.9 °F -4.0 °F 78% 30.14 in 10.0 mi WNW 24.2 mph 28.8 mph N/A   Overcast
2:35 PM 1.4 °F -21.9 °F -4.0 °F 78% 30.15 in 10.0 mi WNW 24.2 mph - N/A   Overcast
2:55 PM -0.4 °F -24.3 °F -5.8 °F 78% 30.14 in 9.0 mi WNW 24.2 mph - N/A   Overcast
3:15 PM -0.4 °F -24.3 °F -4.0 °F 85% 30.15 in 10.0 mi WNW 24.2 mph 29.9 mph N/A   Overcast
3:35 PM -0.4 °F -24.7 °F -7.6 °F 72% 30.16 in 10.0 mi WNW 25.3 mph 31.1 mph N/A   Overcast
3:55 PM -0.4 °F -22.8 °F -7.6 °F 72% 30.17 in 10.0 mi WNW 20.7 mph 27.6 mph N/A   Overcast
4:15 PM -0.4 °F -24.7 °F -7.6 °F 72% 30.17 in 10.0 mi WNW 25.3 mph - N/A   Overcast
4:35 PM -0.4 °F -20.5 °F -7.6 °F 72% 30.18 in 10.0 mi WNW 16.1 mph 26.5 mph N/A   Overcast
4:55 PM -0.4 °F -19.2 °F -7.6 °F 72% 30.20 in 10.0 mi WNW 13.8 mph 23.0 mph N/A   Overcast
5:15 PM -2.2 °F -21.5 °F -9.4 °F 71% 30.20 in 10.0 mi West 13.8 mph 21.9 mph N/A   Overcast
5:35 PM -2.2 °F -19.9 °F -9.4 °F 71% 30.21 in 10.0 mi West 11.5 mph - N/A   Overcast
5:55 PM -2.2 °F -21.5 °F -9.4 °F 71% 30.21 in 10.0 mi West 13.8 mph - N/A   Overcast
6:15 PM -2.2 °F -24.1 °F -9.4 °F 71% 30.21 in 10.0 mi West 18.4 mph - N/A   Mostly Cloudy
6:35 PM -2.2 °F -24.1 °F -9.4 °F 71% 30.22 in 10.0 mi WNW 18.4 mph - N/A   Mostly Cloudy
6:55 PM -2.2 °F -22.2 °F -9.4 °F 71% 30.22 in 10.0 mi WNW 15.0 mph - N/A   Scattered Clouds
7:15 PM -4.0 °F -25.2 °F -9.4 °F 78% 30.23 in 10.0 mi West 16.1 mph - N/A   Scattered Clouds
7:35 PM -2.2 °F -16.8 °F -9.4 °F 71% 30.25 in 10.0 mi WNW 8.1 mph 18.4 mph N/A   Partly Cloudy
7:55 PM -2.2 °F -16.8 °F -9.4 °F 71% 30.26 in 10.0 mi NW 8.1 mph - N/A   Partly Cloudy
8:15 PM -2.2 °F -18.0 °F -9.4 °F 71% 30.27 in 10.0 mi WNW 9.2 mph - N/A   Partly Cloudy
8:35 PM -2.2 °F -19.9 °F -9.4 °F 71% 30.28 in 10.0 mi West 11.5 mph - N/A   Mostly Cloudy
8:55 PM -2.2 °F -20.7 °F -9.4 °F 71% 30.28 in 10.0 mi WNW 12.7 mph - N/A   Mostly Cloudy
9:15 PM -2.2 °F -22.9 °F -9.4 °F 71% 30.28 in 10.0 mi WNW 16.1 mph 19.6 mph N/A   Mostly Cloudy
9:35 PM -2.2 °F -24.1 °F -9.4 °F 71% 30.29 in 10.0 mi WNW 18.4 mph 23.0 mph N/A   Overcast
9:55 PM -2.2 °F -23.5 °F -9.4 °F 71% 30.29 in 10.0 mi WNW 17.3 mph - N/A   Overcast
10:15 PM -2.2 °F -21.5 °F -9.4 °F 71% 30.29 in 10.0 mi West 13.8 mph 20.7 mph N/A   Overcast
10:35 PM -2.2 °F -22.2 °F -9.4 °F 71% 30.30 in 10.0 mi WNW 15.0 mph 20.7 mph N/A   Mostly Cloudy
10:55 PM -2.2 °F -21.5 °F -9.4 °F 71% 30.31 in 10.0 mi WNW 13.8 mph - N/A   Overcast
11:15 PM -2.2 °F -22.2 °F -9.4 °F 71% 30.32 in 10.0 mi WNW 15.0 mph - N/A   Overcast
11:35 PM -2.2 °F -21.5 °F -9.4 °F 71% 30.33 in 10.0 mi West 13.8 mph 18.4 mph N/A   Overcast
11:55 PM -4.0 °F -23.0 °F -9.4 °F 78% 30.33 in 10.0 mi WNW 12.7 mph - N/A   Overcast